User: anonymous   Login
Location: Mentone
(34.5413°N, 85.5351°W)
Time: 04:13:44
(UTC-05:00)
Language:

ERBS - Orbit

View from above orbital plane
View from above orbital plane
View from above satellite
View from above satellite

Ground track
Ground track

The orbit data is extracted from the following two-line orbital elements,

1 15354U 84108B   18115.83446225  .00002356  00000-0  56375-4 0  9995
2 15354  57.0072 230.1353 0010481  13.8023 346.3318 15.45721329846510
Epoch (UTC): 25 April 2018 20:01:37
Eccentricity: 0.0010481
inclination: 57.0072°
perigee height: 422 km
apogee height: 436 km
right ascension of ascending node: 230.1353°
argument of perigee: 13.8023°
revolutions per day: 15.45721329
mean anomaly at epoch: 346.3318°
orbit number at epoch: 84651

The dashed part of the orbit path shows where the satellite is in the earth's shadow,  

DLR